• In Portugal
  • List of Countries
  • For 7 days
  • Water Temperature
  • Satellite Maps
  • Weather Map
  • Weather Widgets
  • user-avatar
    Login

    Hourly Weather Shiraz

    Today, 18 July, Wednesday

    Time Temperature Precipitation Wind Pressure Humidity
    00:00 +30°C° 0 mm 2 mps 631 mmHg 24%
    01:00 +30°C° 0 mm 1 mps 631 mmHg 25%
    02:00 +29°C° 0 mm 1 mps 631 mmHg 26%
    03:00 +29°C° 0 mm 1 mps 631 mmHg 26%
    04:00 +28°C° 0 mm 1 mps 631 mmHg 28%
    05:00 +29°C° 0 mm 1 mps 631 mmHg 27%
    06:00 +29°C° 0 mm 1 mps 632 mmHg 26%
    07:00 +30°C° 0 mm 1 mps 632 mmHg 25%
    08:00 +31°C° 0 mm 1 mps 632 mmHg 22%
    09:00 +33°C° 0 mm 1 mps 633 mmHg 19%
    10:00 +35°C° 0 mm 1 mps 633 mmHg 17%
    11:00 +37°C° 0 mm 2 mps 634 mmHg 15%
    12:00 +38°C° 0 mm 3 mps 634 mmHg 14%
    13:00 +39°C° 0 mm 3 mps 634 mmHg 13%
    14:00 +40°C° 0 mm 4 mps 634 mmHg 13%
    15:00 +41°C° 0 mm 4 mps 634 mmHg 12%
    16:00 +41°C° 0 mm 4 mps 634 mmHg 12%
    17:00 +40°C° 0 mm 4 mps 633 mmHg 13%
    18:00 +38°C° 0 mm 4 mps 633 mmHg 15%
    19:00 +37°C° 0 mm 4 mps 633 mmHg 16%
    20:00 +36°C° 0 mm 4 mps 633 mmHg 17%
    21:00 +35°C° 0 mm 3 mps 633 mmHg 19%
    22:00 +34°C° 0 mm 2 mps 633 mmHg 20%
    23:00 +32°C° 0 mm 2 mps 633 mmHg 21%

    Tomorrow, 19 July, Thursday

    Time Temperature Precipitation Wind Pressure Humidity
    00:00 +31°C° 0 mm 1 mps 633 mmHg 21%
    01:00 +31°C° 0 mm 1 mps 633 mmHg 22%
    02:00 +30°C° 0 mm 1 mps 633 mmHg 23%
    03:00 +30°C° 0 mm 1 mps 633 mmHg 24%
    04:00 +29°C° 0 mm 1 mps 633 mmHg 25%
    05:00 +30°C° 0 mm 1 mps 633 mmHg 24%
    06:00 +28°C° 0 mm 0 mps 633 mmHg 24%
    07:00 +28°C° 0 mm 0 mps 634 mmHg 24%
    08:00 +30°C° 0 mm 0 mps 634 mmHg 21%
    09:00 +33°C° 0 mm 1 mps 634 mmHg 19%
    10:00 +35°C° 0 mm 1 mps 635 mmHg 17%
    11:00 +36°C° 0 mm 1 mps 635 mmHg 16%
    12:00 +37°C° 0 mm 1 mps 635 mmHg 15%
    13:00 +39°C° 0 mm 2 mps 635 mmHg 14%
    14:00 +39°C° 0 mm 2 mps 635 mmHg 13%
    15:00 +40°C° 0 mm 2 mps 635 mmHg 13%
    16:00 +40°C° 0 mm 2 mps 634 mmHg 13%
    17:00 +39°C° 0 mm 3 mps 634 mmHg 13%
    18:00 +39°C° 0 mm 3 mps 634 mmHg 14%
    19:00 +38°C° 0 mm 4 mps 634 mmHg 15%
    20:00 +37°C° 0 mm 3 mps 634 mmHg 17%
    21:00 +36°C° 0 mm 3 mps 634 mmHg 18%
    22:00 +35°C° 0 mm 2 mps 634 mmHg 20%
    23:00 +34°C° 0 mm 2 mps 634 mmHg 21%

    Day after tomorrow, 20 July, Friday

    Time Temperature Precipitation Wind Pressure Humidity
    00:00 +32°C° 0 mm 1 mps 634 mmHg 23%
    01:00 +32°C° 0 mm 1 mps 634 mmHg 24%
    02:00 +31°C° 0 mm 1 mps 633 mmHg 25%
    03:00 +31°C° 0 mm 1 mps 633 mmHg 26%
    04:00 +28°C° 0 mm 0 mps 633 mmHg 27%
    05:00 +30°C° 0 mm 1 mps 633 mmHg 26%
    06:00 +31°C° 0 mm 1 mps 633 mmHg 25%
    07:00 +31°C° 0 mm 1 mps 634 mmHg 24%
    08:00 +33°C° 0 mm 1 mps 634 mmHg 21%
    09:00 +34°C° 0 mm 1 mps 635 mmHg 18%
    10:00 +36°C° 0 mm 1 mps 635 mmHg 14%
    11:00 +37°C° 0 mm 1 mps 635 mmHg 13%
    12:00 +39°C° 0 mm 2 mps 635 mmHg 11%
    13:00 +40°C° 0 mm 2 mps 635 mmHg 10%
    14:00 +40°C° 0 mm 2 mps 635 mmHg 9%
    15:00 +41°C° 0 mm 2 mps 634 mmHg 9%
    16:00 +41°C° 0 mm 2 mps 634 mmHg 8%
    17:00 +40°C° 0 mm 2 mps 634 mmHg 9%
    18:00 +40°C° 0 mm 2 mps 634 mmHg 10%
    19:00 +39°C° 0 mm 3 mps 634 mmHg 10%
    20:00 +38°C° 0 mm 2 mps 634 mmHg 12%
    21:00 +37°C° 0 mm 2 mps 634 mmHg 14%
    22:00 +34°C° 0 mm 1 mps 634 mmHg 15%
    23:00 +34°C° 0 mm 1 mps 634 mmHg 15%

    21 July, Saturday

    Time Temperature Precipitation Wind Pressure Humidity
    00:00 +33°C° 0 mm 1 mps 633 mmHg 16%
    01:00 +32°C° 0 mm 1 mps 633 mmHg 16%
    02:00 +31°C° 0 mm 1 mps 633 mmHg 15%
    03:00 +31°C° 0 mm 1 mps 632 mmHg 14%
    04:00 +30°C° 0 mm 1 mps 632 mmHg 14%
    05:00 +31°C° 0 mm 1 mps 633 mmHg 14%
    06:00 +31°C° 0 mm 1 mps 633 mmHg 13%
    07:00 +31°C° 0 mm 1 mps 633 mmHg 13%
    08:00 +33°C° 0 mm 1 mps 634 mmHg 12%
    09:00 +34°C° 0 mm 1 mps 634 mmHg 10%
    10:00 +37°C° 0 mm 2 mps 635 mmHg 9%
    11:00 +38°C° 0 mm 2 mps 635 mmHg 9%
    12:00 +39°C° 0 mm 2 mps 635 mmHg 8%
    13:00 +40°C° 0 mm 2 mps 635 mmHg 8%
    14:00 +40°C° 0 mm 2 mps 634 mmHg 7%
    15:00 +40°C° 0 mm 2 mps 634 mmHg 7%
    16:00 +41°C° 0 mm 2 mps 634 mmHg 7%
    17:00 +40°C° 0 mm 2 mps 634 mmHg 7%
    18:00 +40°C° 0 mm 2 mps 634 mmHg 8%
    19:00 +40°C° 0 mm 2 mps 634 mmHg 9%
    20:00 +38°C° 0 mm 2 mps 634 mmHg 10%
    21:00 +37°C° 0 mm 2 mps 634 mmHg 12%
    22:00 +36°C° 0 mm 2 mps 634 mmHg 14%
    23:00 +34°C° 0 mm 1 mps 633 mmHg 15%

    22 July, Sunday

    Time Temperature Precipitation Wind Pressure Humidity
    00:00 +33°C° 0 mm 1 mps 633 mmHg 16%
    01:00 +32°C° 0 mm 1 mps 633 mmHg 17%
    02:00 +31°C° 0 mm 1 mps 632 mmHg 18%
    03:00 +31°C° 0 mm 1 mps 632 mmHg 18%
    04:00 +30°C° 0 mm 1 mps 632 mmHg 18%
    05:00 +30°C° 0 mm 1 mps 632 mmHg 18%
    06:00 +31°C° 0 mm 1 mps 633 mmHg 18%
    07:00 +31°C° 0 mm 1 mps 633 mmHg 18%
    08:00 +33°C° 0 mm 1 mps 633 mmHg 15%
    09:00 +35°C° 0 mm 1 mps 634 mmHg 13%
    10:00 +36°C° 0 mm 1 mps 634 mmHg 10%
    11:00 +37°C° 0 mm 1 mps 634 mmHg 9%
    12:00 +39°C° 0 mm 1 mps 634 mmHg 9%
    13:00 +40°C° 0 mm 1 mps 634 mmHg 8%
    14:00 +40°C° 0 mm 1 mps 634 mmHg 8%
    15:00 +41°C° 0 mm 2 mps 633 mmHg 8%
    16:00 +41°C° 0 mm 2 mps 633 mmHg 8%
    17:00 +40°C° 0 mm 3 mps 633 mmHg 8%
    18:00 +40°C° 0 mm 3 mps 633 mmHg 9%
    19:00 +40°C° 0 mm 4 mps 633 mmHg 10%
    20:00 +38°C° 0 mm 3 mps 633 mmHg 12%
    21:00 +37°C° 0 mm 2 mps 633 mmHg 13%
    22:00 +35°C° 0 mm 2 mps 633 mmHg 15%
    23:00 +33°C° 0 mm 1 mps 633 mmHg 15%

    23 July, Monday

    Time Temperature Precipitation Wind Pressure Humidity
    00:00 +33°C° 0 mm 1 mps 632 mmHg 16%
    01:00 +32°C° 0 mm 1 mps 632 mmHg 17%
    02:00 +31°C° 0 mm 1 mps 632 mmHg 17%
    03:00 +30°C° 0 mm 1 mps 631 mmHg 17%
    04:00 +30°C° 0 mm 1 mps 631 mmHg 17%
    05:00 +30°C° 0 mm 1 mps 631 mmHg 17%
    06:00 +31°C° 0 mm 1 mps 632 mmHg 17%
    07:00 +31°C° 0 mm 1 mps 632 mmHg 17%
    08:00 +33°C° 0 mm 1 mps 633 mmHg 13%
    09:00 +34°C° 0 mm 1 mps 633 mmHg 10%
    10:00 +36°C° 0 mm 1 mps 634 mmHg 7%
    11:00 +37°C° 0 mm 1 mps 634 mmHg 7%
    12:00 +39°C° 0 mm 1 mps 634 mmHg 6%
    13:00 +40°C° 0 mm 1 mps 633 mmHg 6%
    14:00 +40°C° 0 mm 2 mps 633 mmHg 6%
    15:00 +40°C° 0 mm 2 mps 633 mmHg 6%
    16:00 +41°C° 0 mm 2 mps 632 mmHg 6%
    17:00 +40°C° 0 mm 3 mps 632 mmHg 7%
    18:00 +39°C° 0 mm 3 mps 632 mmHg 8%
    19:00 +40°C° 0 mm 4 mps 632 mmHg 8%
    20:00 +37°C° 0 mm 3 mps 632 mmHg 10%
    21:00 +36°C° 0 mm 2 mps 632 mmHg 11%
    22:00 +34°C° 0 mm 2 mps 632 mmHg 13%
    23:00 +34°C° 0 mm 2 mps 632 mmHg 14%
    Show more